| time (UTC) | temp F | wind direction | speed MPH | gust MPH | rain 1hr in | rain 24hr in | rain mn in | humidity % | barometer mb |
| 20260503014003 | 68 | 3 | 4.0 | 4.0 | 0.00 | 0.00 | 0.00 | 42 | 1062.0 |
| 20260503012503 | 69 | 7 | 3.0 | 7.0 | 0.00 | 0.00 | 0.00 | 40 | 1062.0 |
| 20260503011003 | 70 | 123 | 3.0 | 7.0 | 0.00 | 0.00 | 0.00 | 38 | 1062.0 |
| 20260503010002 | 70 | 49 | 6.0 | 8.0 | 0.00 | 0.00 | 0.00 | 37 | 1062.0 |
| 20260503004503 | 71 | 87 | 6.0 | 7.0 | 0.00 | 0.00 | 0.00 | 36 | 1061.6 |
| 20260503003003 | 72 | 36 | 5.0 | 9.0 | 0.00 | 0.00 | 0.00 | 35 | 1061.6 |
| 20260503002002 | 72 | 58 | 7.0 | 12.0 | 0.00 | 0.00 | 0.00 | 35 | 1061.6 |
| 20260503000503 | 73 | 45 | 7.0 | 9.0 | 0.00 | 0.00 | 0.00 | 33 | 1061.6 |
| 20260502235003 | 73 | 338 | 7.0 | 7.0 | 0.00 | 0.00 | 0.00 | 31 | 1061.6 |
| 20260502233503 | 74 | 49 | 4.0 | 8.0 | 0.00 | 0.00 | 0.00 | 31 | 1061.6 |
| 20260502232003 | 74 | 298 | 6.0 | 7.0 | 0.00 | 0.00 | 0.00 | 31 | 1061.6 |
| 20260502230503 | 74 | 9 | 9.0 | 13.0 | 0.00 | 0.00 | 0.00 | 30 | 1062.0 |
| 20260502225003 | 73 | 350 | 3.0 | 9.0 | 0.00 | 0.00 | 0.00 | 31 | 1062.0 |
| 20260502223503 | 74 | 334 | 8.0 | 13.0 | 0.00 | 0.00 | 0.00 | 31 | 1062.0 |
| 20260502222502 | 74 | 105 | 2.0 | 6.0 | 0.00 | 0.00 | 0.00 | 31 | 1062.0 |
| 20260502221003 | 73 | 56 | 5.0 | 13.0 | 0.00 | 0.00 | 0.00 | 33 | 1062.3 |
| 20260502215503 | 73 | 7 | 4.0 | 9.0 | 0.00 | 0.00 | 0.00 | 32 | 1062.3 |
| 20260502214003 | 74 | 342 | 9.0 | 11.0 | 0.00 | 0.00 | 0.00 | 32 | 1062.3 |
| 20260502212503 | 74 | 54 | 7.0 | 9.0 | 0.00 | 0.00 | 0.00 | 33 | 1062.6 |
| 20260502211502 | 74 | 65 | 9.0 | 11.0 | 0.00 | 0.00 | 0.00 | 34 | 1063.0 |
| 20260502210003 | 75 | 43 | 4.0 | 7.0 | 0.00 | 0.00 | 0.00 | 33 | 1063.0 |
| 20260502205003 | 72 | 350 | 2.0 | 10.0 | 0.00 | 0.00 | 0.00 | 35 | 1063.3 |
| 20260502203503 | 71 | 308 | 3.0 | 9.0 | 0.00 | 0.00 | 0.00 | 35 | 1063.3 |
| 20260502202502 | 72 | 350 | 7.0 | 11.0 | 0.00 | 0.00 | 0.00 | 34 | 1063.7 |
| 20260502201002 | 71 | 295 | 7.0 | 14.0 | 0.00 | 0.00 | 0.00 | 36 | 1063.7 |
| 20260502195503 | 72 | 81 | 4.0 | 11.0 | 0.00 | 0.00 | 0.00 | 36 | 1063.7 |
| 20260502194002 | 73 | 3 | 10.0 | 10.0 | 0.00 | 0.00 | 0.00 | 36 | 1063.7 |
| 20260502192503 | 72 | 15 | 8.0 | 9.0 | 0.00 | 0.00 | 0.00 | 34 | 1064.0 |
| 20260502191003 | 72 | 94 | 9.0 | 12.0 | 0.00 | 0.00 | 0.00 | 35 | 1064.0 |
| 20260502185503 | 71 | 45 | 10.0 | 10.0 | 0.00 | 0.00 | 0.00 | 36 | 1064.0 |
| 20260502184002 | 72 | 352 | 10.0 | 13.0 | 0.00 | 0.00 | 0.00 | 34 | 1064.3 |
| 20260502163003 | 68 | 337 | 6.0 | 7.0 | 0.00 | 0.00 | 0.00 | 39 | 1065.0 |
| 20260502162003 | 68 | 338 | 3.0 | 4.0 | 0.00 | 0.00 | 0.00 | 39 | 1065.0 |
| 20260502160503 | 68 | 297 | 3.0 | 6.0 | 0.00 | 0.00 | 0.00 | 41 | 1065.0 |
| 20260502152003 | 64 | 212 | 6.0 | 7.0 | 0.00 | 0.00 | 0.00 | 46 | 1065.4 |
| 20260502150503 | 63 | 218 | 6.0 | 9.0 | 0.00 | 0.00 | 0.00 | 46 | 1064.7 |
| 20260502130503 | 57 | 175 | 7.0 | 8.0 | 0.00 | 0.00 | 0.00 | 51 | 1064.7 |
| 20260502123503 | 54 | 158 | 4.0 | 6.0 | 0.00 | 0.00 | 0.00 | 57 | 1064.7 |
| 20260502122003 | 53 | 224 | 3.0 | 4.0 | 0.00 | 0.00 | 0.00 | 60 | 1064.3 |
| 20260502120503 | 52 | 218 | 2.0 | 4.0 | 0.00 | 0.00 | 0.00 | 62 | 1064.3 |
| 20260502115003 | 52 | 133 | 2.0 | 3.0 | 0.00 | 0.00 | 0.00 | 63 | 1064.0 |
| 20260502114003 | 52 | 160 | 3.0 | 4.0 | 0.00 | 0.00 | 0.00 | 62 | 1064.3 |
| 20260502112503 | 53 | 222 | 1.0 | 3.0 | 0.00 | 0.00 | 0.00 | 60 | 1064.3 |
| 20260502111003 | 54 | 219 | 0.0 | 3.0 | 0.00 | 0.00 | 0.00 | 58 | 1064.3 |
| 20260502105503 | 53 | 167 | 3.0 | 4.0 | 0.00 | 0.00 | 0.00 | 57 | 1064.3 |
| 20260502104003 | 54 | 112 | 3.0 | 4.0 | 0.00 | 0.00 | 0.00 | 57 | 1064.7 |
| 20260502102502 | 55 | 39 | 9.0 | 10.0 | 0.00 | 0.00 | 0.00 | 55 | 1064.7 |
| 20260502101003 | 55 | 18 | 10.0 | 23.0 | 0.00 | 0.00 | 0.00 | 55 | 1064.3 |
| 20260502091503 | 53 | 221 | 3.0 | 6.0 | 0.00 | 0.00 | 0.00 | 58 | 1063.0 |
| 20260502070503 | 58 | 178 | 4.0 | 8.0 | 0.00 | 0.00 | 0.00 | 45 | 1063.0 |
| 20260502063503 | 57 | 193 | 5.0 | 7.0 | 0.00 | 0.00 | 0.00 | 48 | 1063.3 |
| 20260502062503 | 58 | 192 | 7.0 | 7.0 | 0.00 | 0.00 | 0.00 | 46 | 1063.3 |
| 20260502061003 | 58 | 188 | 4.0 | 6.0 | 0.00 | 0.00 | 0.00 | 46 | 1063.3 |
| 20260502054004 | 59 | 170 | 3.0 | 6.0 | 0.00 | 0.00 | 0.00 | 44 | 1063.0 |
| 20260502052505 | 58 | 181 | 3.0 | 5.0 | 0.00 | 0.00 | 0.00 | 45 | 1063.0 |
| 20260502051503 | 58 | 173 | 3.0 | 5.0 | 0.00 | 0.00 | 0.00 | 46 | 1063.0 |
| 20260502050006 | 57 | 184 | 2.0 | 3.0 | 0.00 | 0.00 | 0.00 | 48 | 1063.0 |
| 20260502045003 | 58 | 177 | 3.0 | 5.0 | 0.00 | 0.00 | 0.00 | 48 | 1063.0 |
| 20260502042502 | 58 | 164 | 4.0 | 4.0 | 0.00 | 0.00 | 0.00 | 49 | 1063.0 |
| 20260502041003 | 58 | 166 | 0.0 | 3.0 | 0.00 | 0.00 | 0.00 | 49 | 1063.0 |
| 20260502035503 | 59 | 122 | 1.0 | 1.0 | 0.00 | 0.00 | 0.00 | 47 | 1063.0 |
| 20260502034003 | 59 | 157 | 3.0 | 5.0 | 0.00 | 0.00 | 0.00 | 46 | 1062.6 |
| 20260502032503 | 60 | 156 | 2.0 | 4.0 | 0.00 | 0.00 | 0.00 | 46 | 1062.6 |
| 20260502031003 | 60 | 128 | 3.0 | 4.0 | 0.00 | 0.00 | 0.00 | 46 | 1062.6 |
| 20260502025503 | 60 | 91 | 1.0 | 5.0 | 0.00 | 0.00 | 0.00 | 45 | 1062.6 |
| 20260502022503 | 61 | 120 | 4.0 | 4.0 | 0.00 | 0.00 | 0.00 | 44 | 1062.3 |
| 20260502021503 | 61 | 128 | 2.0 | 3.0 | 0.00 | 0.00 | 0.00 | 45 | 1062.3 |
| 20260502020003 | 62 | 151 | 2.0 | 4.0 | 0.00 | 0.00 | 0.00 | 44 | 1062.0 |